Regional Weather Roundup
Issued by NWS

Home | Current Version | Previous Version | Graphics & Text | Print | Product List | Glossary On
Versions: 1 2 3 4 5 6 7 8 9 10 11 12 13 14 15 16 17 18 19 20 21 22 23 24 25 26 27 28 29 30 31 32 33 34 35 36 37 38 39 40 41 42 43 44 45 46 47 48 49 50
000
ASUS43 KBIS 221731
RWRND
NORTH DAKOTA REGIONAL WEATHER ROUNDUP
NATIONAL WEATHER SERVICE EASTERN NORTH DAKOTA/GRAND FORKS ND
1200 PM CDT THU JUN 22 2017

  NOTE: "FAIR" INDICATES FEW OR NO CLOUDS BELOW 12,000 FEET WITH NO
  SIGNIFICANT WEATHER AND/OR OBSTRUCTIONS TO VISIBILITY.

NDZ001>003-009>011-017-221800-
...NORTHWEST NORTH DAKOTA...

CITY           SKY/WX    TMP DP  RH WIND       PRES   REMARKS
WILLISTON      FAIR      70  38  31 W22G29    29.86S
MINOT          FAIR      70  33  25 W30G41    29.77F
MINOT AFB      FAIR      68  37  32 W21G35    29.75F
$$

NDZ018>021-031>035-040>046-221800-
...SOUTHWEST NORTH DAKOTA...

CITY           SKY/WX    TMP DP  RH WIND       PRES   REMARKS
BISMARCK       FAIR      74  41  30 W22G29    29.84R
DICKINSON      FAIR      69  33  26 W17G24    29.88S
GARRISON         N/A     67  37  33 NW24G36   29.81S
HETTINGER      FAIR      72  36  26 NW17      29.92S
$$

NDZ004>008-012>016-024-026-027-054-221800-
...NORTHEAST NORTH DAKOTA...

CITY           SKY/WX    TMP DP  RH WIND       PRES   REMARKS
GRAND FORKS    FAIR      74  53  48 W15G21    29.68F
GRAND FORKS AF FAIR      73  51  46 NW10G20   29.69F
DEVILS LAKE    FAIR      69  43  38 W24G30    29.73S
$$

NDZ022-023-025-028>030-036>039-047>053-221800-
...SOUTHEAST NORTH DAKOTA...

CITY           SKY/WX    TMP DP  RH WIND       PRES   REMARKS
JAMESTOWN      FAIR      73  47  39 W18G26    29.76S
FARGO          FAIR      76  45  33 NW17G25   29.73R
WAHPETON       FAIR      73  43  33 N13       29.75F
$$




USA.gov is the U.S. government's official web portal to all federal, state and local government web resources and services.